Flag for Switzerland Weather past 2 weeks in Uster, Zurich, Switzerland

Now
58 °F

Refreshingly cool.


Feels Like: 58 °F
Forecast: 47 / 71 °F
Wind: 5 mph from Northeast

Location: Zurich Town / Ville.


UV Index: 3 (Moderate)

Visibility: N/A


Pressure: 30.03 "Hg

Humidity: 59%

Dew point: 44 °F

Location of UsterLocation

Historic Weather in Uster

°F

Uster temperature yesterday

Maximum temperature yesterday: 65 °F (at 5:00 PM)
Minimum temperature yesterday: 48 °F (at 6:00 AM)
Average temperature yesterday: 55 °F

Past Weeks' High & Low Weather Summary

 TemperatureHumidityPressure
High69 °F (Apr 23, 4:00 PM)97% (Apr 18, 7:00 PM)30.34 "Hg (Apr 18, 7:00 PM)
Low35 °F (Apr 18, 9:00 PM)25% (Apr 17, 4:00 PM)29.62 "Hg (Apr 20, 6:00 PM)
Average50 °F62%30.02 "Hg
* Reported Apr 8 10:00 PM — Apr 23 10:00 PM, Uster, Weather by CustomWeather, © 2014

Note: Actual official high and low records may vary slightly from our data, if they occured in-between our weather recording intervals... More about our weather records

Advertising

Historic Weather Conditions — Data for Previous 24 hours

 ConditionsComfort  
Time TempWeatherWind HumidityBarometerVisibility
10:00 PM
Apr 23
58 °FRefreshingly cool.5 mph59%30.03 "HgN/A
9:00 PM60 °FRefreshingly cool.2 mph57%30.01 "HgN/A
8:00 PM64 °FPassing clouds.2 mph43%29.97 "Hg19 mi
7:00 PM67 °FMild.6 mph40%29.95 "HgN/A
6:00 PM66 °FMild.6 mph42%29.95 "HgN/A
5:00 PM69 °FMild.9 mph38%29.95 "HgN/A
4:00 PM69 °FMild.7 mph41%29.96 "HgN/A
3:00 PM67 °FMild.7 mph40%29.99 "HgN/A
2:00 PM67 °FPassing clouds.7 mph43%30.00 "Hg14 mi
1:00 PM65 °FMild.6 mph48%30.03 "HgN/A
12:00 PM62 °FMild.1 mph59%30.06 "HgN/A
11:00 AM58 °FCool.2 mph68%30.08 "HgN/A
10:00 AM55 °FCool.3 mph72%30.09 "HgN/A
9:00 AM52 °FCool.1 mph78%30.10 "HgN/A
8:00 AM48 °FPassing clouds.No wind88%30.12 "Hg14 mi
7:00 AM47 °FCool.1 mph88%30.11 "HgN/A
6:00 AM47 °FCool.No wind89%30.09 "HgN/A
5:00 AM48 °FCool.2 mph86%30.08 "HgN/A
4:00 AM48 °FCool.1 mph86%30.07 "HgN/A
3:00 AM49 °FCool.1 mph81%30.06 "HgN/A
2:00 AM51 °FCool.1 mph75%30.05 "HgN/A
1:00 AM51 °FCool.1 mph75%30.03 "HgN/A
12:00 AM54 °FCool.2 mph63%30.01 "HgN/A
11:00 PM
Apr 22
54 °FCool.2 mph64%29.99 "HgN/A
Weather by CustomWeather, © 2014

See weather overview